WZZ934 LZIB-LZKZ

Flight info

Callsign WZZ934
Flight time 0h 33m
Altitude 23000
Route NIT3Y/13 NIT N190 TAKOS
Aircraft A20N/M-SDE2E3FGHIRWXY/LB1

Departure

Time 2026-05-04 17:31
Airport M. R. Štefánik Airport (LZIB)

Arrival

Time 2026-05-04 18:05
Airport Košice International Airport (LZKZ)
Time Latitude Longitude Altitude Speed Heading
2026-05-04 17:14 48.16889 17.20062 443 ft 0 kts 314°
2026-05-04 17:23 48.16884 17.20069 431 ft 2 kts 314°
2026-05-04 17:24 48.16872 17.20086 428 ft 2 kts 321°
2026-05-04 17:24 48.16834 17.20090 434 ft 1 kts 45°
2026-05-04 17:25 48.16833 17.20090 433 ft 0 kts 45°
2026-05-04 17:27 48.16894 17.20178 435 ft 14 kts 43°
2026-05-04 17:27 48.17090 17.20457 439 ft 25 kts 44°
2026-05-04 17:28 48.17297 17.20461 436 ft 17 kts 320°
2026-05-04 17:29 48.17524 17.20355 429 ft 15 kts 38°
2026-05-04 17:29 48.17505 17.20503 436 ft 0 kts 133°
2026-05-04 17:30 48.17486 17.20534 438 ft 22 kts 133°
2026-05-04 17:31 48.16639 17.21850 430 ft 143 kts 134°
2026-05-04 17:31 48.14201 17.25506 1827 ft 169 kts 136°
2026-05-04 17:32 48.12385 17.28083 2722 ft 196 kts 134°
2026-05-04 17:33 48.12142 17.34782 4162 ft 263 kts 63°
2026-05-04 17:33 48.13015 17.37228 5129 ft 268 kts 61°
2026-05-04 17:34 48.15421 17.44997 8096 ft 281 kts 68°
2026-05-04 17:34 48.16144 17.47732 9053 ft 285 kts 69°
2026-05-04 17:35 48.18212 17.56505 10989 ft 328 kts 73°
2026-05-04 17:35 48.19587 17.63310 11926 ft 347 kts 73°
2026-05-04 17:35 48.20275 17.66806 12598 ft 350 kts 73°
2026-05-04 17:36 48.20957 17.70317 13511 ft 352 kts 73°
2026-05-04 17:36 48.21652 17.73919 14309 ft 357 kts 73°
2026-05-04 17:36 48.22343 17.77518 15084 ft 361 kts 74°
2026-05-04 17:36 48.23029 17.81106 15824 ft 365 kts 74°
2026-05-04 17:37 48.23732 17.84789 16556 ft 369 kts 74°
2026-05-04 17:37 48.24440 17.88511 17265 ft 373 kts 74°
2026-05-04 17:37 48.25156 17.92277 17950 ft 377 kts 74°
2026-05-04 17:37 48.25878 17.96087 18622 ft 381 kts 74°
2026-05-04 17:38 48.26606 17.99936 19275 ft 385 kts 74°
2026-05-04 17:38 48.27340 18.03822 19921 ft 389 kts 74°
2026-05-04 17:38 48.28079 18.07747 20543 ft 393 kts 74°
2026-05-04 17:38 48.28826 18.11716 21155 ft 396 kts 74°
2026-05-04 17:39 48.30334 18.19761 22335 ft 404 kts 74°
2026-05-04 17:39 48.31095 18.23836 22806 ft 408 kts 74°
2026-05-04 17:39 48.31861 18.27942 22971 ft 410 kts 74°
2026-05-04 17:40 48.32644 18.32157 23001 ft 428 kts 74°
2026-05-04 17:40 48.33461 18.36559 23001 ft 445 kts 74°
2026-05-04 17:40 48.34017 18.39557 23001 ft 455 kts 74°
2026-05-04 17:40 48.34877 18.44212 23001 ft 470 kts 74°
2026-05-04 17:41 48.35756 18.48978 23000 ft 475 kts 74°
2026-05-04 17:41 48.36634 18.53753 23000 ft 474 kts 74°
2026-05-04 17:41 48.37514 18.58549 23000 ft 474 kts 75°
2026-05-04 17:41 48.38387 18.63326 23001 ft 474 kts 75°
2026-05-04 17:42 48.39262 18.68119 23000 ft 475 kts 75°
2026-05-04 17:42 48.40135 18.72922 23000 ft 476 kts 75°
2026-05-04 17:42 48.41009 18.77736 23000 ft 477 kts 75°
2026-05-04 17:42 48.41878 18.82539 23000 ft 477 kts 75°
2026-05-04 17:43 48.42749 18.87362 23000 ft 477 kts 75°
2026-05-04 17:43 48.43615 18.92177 23000 ft 476 kts 75°
2026-05-04 17:43 48.44477 18.96976 23001 ft 477 kts 75°
2026-05-04 17:43 48.45341 19.01803 23000 ft 477 kts 75°
2026-05-04 17:44 48.46204 19.06637 23000 ft 476 kts 75°
2026-05-04 17:44 48.47059 19.11437 23000 ft 475 kts 75°
2026-05-04 17:44 48.47915 19.16254 23000 ft 476 kts 75°
2026-05-04 17:44 48.48770 19.21082 23000 ft 478 kts 75°
2026-05-04 17:45 48.49625 19.25922 23000 ft 477 kts 75°
2026-05-04 17:45 48.50477 19.30758 22999 ft 476 kts 75°
2026-05-04 17:45 48.51323 19.35571 23001 ft 476 kts 75°
2026-05-04 17:45 48.52169 19.40398 23000 ft 476 kts 75°
2026-05-04 17:46 48.53008 19.45203 22978 ft 469 kts 75°
2026-05-04 17:46 48.53822 19.49873 22825 ft 455 kts 75°
2026-05-04 17:46 48.54615 19.54437 22634 ft 439 kts 75°
2026-05-04 17:46 48.55380 19.58846 22181 ft 430 kts 75°
2026-05-04 17:47 48.56123 19.63144 21881 ft 417 kts 75°
2026-05-04 17:47 48.56842 19.67316 21633 ft 404 kts 75°
2026-05-04 17:47 48.57540 19.71372 21379 ft 397 kts 75°
2026-05-04 17:47 48.58234 19.75411 21131 ft 400 kts 75°
2026-05-04 17:48 48.58933 19.79493 20757 ft 402 kts 75°
2026-05-04 17:48 48.59633 19.83586 20206 ft 403 kts 75°
2026-05-04 17:48 48.60331 19.87678 19646 ft 400 kts 75°
2026-05-04 17:48 48.61019 19.91721 19097 ft 396 kts 75°
2026-05-04 17:49 48.61700 19.95733 18542 ft 391 kts 75°
2026-05-04 17:49 48.62368 19.99700 17998 ft 387 kts 76°
2026-05-04 17:49 48.63034 20.03617 17482 ft 382 kts 75°
2026-05-04 17:49 48.63810 20.07434 16950 ft 378 kts 71°
2026-05-04 17:50 48.64642 20.11120 16437 ft 374 kts 71°
2026-05-04 17:50 48.65479 20.14811 15910 ft 370 kts 71°
2026-05-04 17:50 48.66309 20.18477 15393 ft 366 kts 71°
2026-05-04 17:50 48.67132 20.22112 14862 ft 363 kts 71°
2026-05-04 17:51 48.67946 20.25710 14342 ft 360 kts 71°
2026-05-04 17:51 48.68754 20.29285 13813 ft 358 kts 71°
2026-05-04 17:51 48.69556 20.32840 13282 ft 354 kts 71°
2026-05-04 17:51 48.70339 20.36308 12754 ft 344 kts 71°
2026-05-04 17:52 48.71100 20.39684 12229 ft 334 kts 71°
2026-05-04 17:52 48.71841 20.42974 11694 ft 325 kts 71°
2026-05-04 17:52 48.72563 20.46178 11176 ft 318 kts 71°
2026-05-04 17:52 48.73268 20.49311 10653 ft 311 kts 71°
2026-05-04 17:53 48.73955 20.52368 10232 ft 302 kts 71°
2026-05-04 17:53 48.74619 20.55325 9829 ft 292 kts 71°
2026-05-04 17:53 48.75273 20.58236 9431 ft 293 kts 71°
2026-05-04 17:53 48.75929 20.61162 9047 ft 294 kts 71°
2026-05-04 17:54 48.76586 20.64089 8674 ft 292 kts 71°
2026-05-04 17:54 48.77231 20.66966 8489 ft 285 kts 71°
2026-05-04 17:54 48.77872 20.69829 8449 ft 288 kts 71°
2026-05-04 17:54 48.78516 20.72704 8280 ft 288 kts 71°
2026-05-04 17:55 48.79153 20.75550 8029 ft 282 kts 71°
2026-05-04 17:55 48.79777 20.78341 7768 ft 276 kts 71°
2026-05-04 17:55 48.80385 20.81065 7514 ft 270 kts 71°
2026-05-04 17:55 48.80989 20.83764 7266 ft 272 kts 71°
2026-05-04 17:56 48.81597 20.86489 6896 ft 273 kts 71°
2026-05-04 17:56 48.82197 20.89181 6513 ft 266 kts 71°
2026-05-04 17:56 48.82781 20.91801 6133 ft 258 kts 71°
2026-05-04 17:56 48.83350 20.94348 5757 ft 253 kts 71°
2026-05-04 17:57 48.83912 20.96873 5507 ft 252 kts 71°
2026-05-04 17:57 48.84477 20.99409 5446 ft 254 kts 71°
2026-05-04 17:57 48.85039 21.01934 5446 ft 252 kts 71°
2026-05-04 17:57 48.85600 21.04458 5446 ft 253 kts 71°
2026-05-04 17:58 48.86125 21.07000 5438 ft 252 kts 79°
2026-05-04 17:58 48.86116 21.09632 5320 ft 248 kts 99°
2026-05-04 17:58 48.85839 21.12155 5210 ft 236 kts 100°
2026-05-04 17:58 48.85556 21.14564 4914 ft 229 kts 100°
2026-05-04 17:59 48.85267 21.16933 4528 ft 227 kts 101°
2026-05-04 17:59 48.84976 21.19271 4144 ft 225 kts 101°
2026-05-04 17:59 48.84410 21.23793 3676 ft 205 kts 101°
2026-05-04 18:00 48.84149 21.25883 3391 ft 199 kts 101°
2026-05-04 18:00 48.83752 21.27820 3251 ft 185 kts 123°
2026-05-04 18:00 48.82866 21.29073 3142 ft 168 kts 154°
2026-05-04 18:00 48.81787 21.29470 2970 ft 157 kts 182°
2026-05-04 18:01 48.80732 21.29168 2729 ft 154 kts 195°
2026-05-04 18:01 48.79694 21.28778 2500 ft 151 kts 194°
2026-05-04 18:01 48.78722 21.28440 2436 ft 136 kts 194°
2026-05-04 18:02 48.76870 21.27806 2443 ft 136 kts 194°
2026-05-04 18:02 48.75938 21.27483 2356 ft 138 kts 194°
2026-05-04 18:02 48.75013 21.27161 2164 ft 136 kts 194°
2026-05-04 18:02 48.74096 21.26843 1992 ft 135 kts 194°
2026-05-04 18:03 48.73180 21.26522 1806 ft 135 kts 194°
2026-05-04 18:03 48.72270 21.26203 1632 ft 134 kts 194°
2026-05-04 18:03 48.71357 21.25883 1454 ft 134 kts 194°
2026-05-04 18:03 48.70461 21.25568 1286 ft 134 kts 194°
2026-05-04 18:04 48.69557 21.25247 1153 ft 134 kts 191°
2026-05-04 18:04 48.68646 21.24947 976 ft 134 kts 193°
2026-05-04 18:04 48.66873 21.24320 762 ft 115 kts 192°
2026-05-04 18:05 48.66292 21.24115 759 ft 63 kts 193°
2026-05-04 18:05 48.66038 21.24040 758 ft 18 kts 171°
2026-05-04 18:05 48.65996 21.23986 756 ft 1 kts 303°
2026-05-04 18:05 48.66011 21.23994 757 ft 6 kts 21°
2026-05-04 18:06 48.66197 21.24080 759 ft 19 kts 13°
2026-05-04 18:06 48.66341 21.24128 759 ft 24 kts 12°
2026-05-04 18:06 48.66521 21.24195 757 ft 28 kts 14°
2026-05-04 18:07 48.66713 21.24261 761 ft 29 kts 13°
2026-05-04 18:07 48.66911 21.24332 762 ft 30 kts 14°
2026-05-04 18:07 48.67115 21.24405 757 ft 24 kts 12°
2026-05-04 18:07 48.67220 21.24406 756 ft 8 kts 322°
2026-05-04 18:08 48.67232 21.24375 755 ft 6 kts 298°
2026-05-04 18:08 48.67245 21.24304 757 ft 2 kts 283°
2026-05-04 18:08 48.67248 21.24288 755 ft 7 kts 284°
2026-05-04 18:08 48.67266 21.24180 755 ft 13 kts 284°
2026-05-04 18:09 48.67295 21.23987 758 ft 5 kts 283°
2026-05-04 18:09 48.67329 21.23898 758 ft 6 kts 326°
2026-05-04 18:10 48.67344 21.23874 757 ft 2 kts 288°
2026-05-04 18:10 48.67338 21.23849 758 ft 3 kts 232°
2026-05-04 18:10 48.67322 21.23839 757 ft 0 kts 191°
2026-05-04 18:10 48.67310 21.23851 758 ft 4 kts 135°
2026-05-04 18:11 48.67307 21.23882 758 ft 1 kts 83°
2026-05-04 18:11 48.67309 21.23892 758 ft 0 kts 71°